Location: Unspecified
(52.4292°N, 19.3359°E)
Time: 23:44:46
(UTC+02:00)

A-11 Canister half - Pass Details

Date: 21 May 2024
Orbit: 1524 x 1683 km, 47.3° (Epoch: 19 June)

Event Time Altitude Azimuth Distance (km) Brightness Sun altitude
Rises 23:07:32 0° 238° (WSW) 4,695 11.4 -14.5°
Reaches altitude 10° 23:10:37 10° 234° (SW) 3,728 10.9 -14.6°
Maximum altitude 23:19:42 55° 160° (SSE) 1,848 9.1 -15.1°
Drops below altitude 10° 23:29:07 10° 86° (E) 3,853 11.0 -15.6°
Sets 23:32:21 0° 83° (E) 4,861 11.5 -15.7°
